Вернуться в каталог

FALCON 9 R/B

АктивенGTO
NORAD 52934·ROCKET BODY·🇺🇸 United States

Запущен Jun 29, 2022 с Cape Canaveral Space Force Station

Loading…

TLE

УстаревшееSource: Space-Track

Эпоха: Sep 12, 2026, 04:27 UTC

1 52934U 22071B   26255.18567298  .00000517  00000-0  38098-3 0  9995
2 52934  15.8935 170.3690 7209471 252.7825  22.6049  2.34623732 35624

Отслеживайте FALCON 9 R/B в реальном времени с AllMySat

Download on the App Store